This demonstration page uses our WeatherBlox Daily Observations layout. Learn more.

Left ArrowRight Arrow

41.86663, -103.66717

Hourly Observations for August 10, 2018

Temp ( °F °C ) Dew Point ( °F °C ) Humidity (%) Winds ( mph kmh ) Pressure ( in mb ) Visibility ( mi km ) Precip ( " mm )
12:53 am 00:53 Partly Cloudy 65 18.3 59 15 81 81 E 8 13 30.05 1018 10 16 0.00 0.00
1:53 am 01:53 Mostly Clear 64 17.8 59 15 84 84 E 6 9 30.03 1017 10 16 0.00 0.00
2:53 am 02:53 Partly Cloudy 62 16.7 59 15 90 90 E 6 9 30.03 1017 10 16 0.00 0.00
3:53 am 03:53 Clear 59 15 57 13.9 93 93 NW 5 7 30.04 1017 10 16 0.00 0.00
4:53 am 04:53 Clear 59 15 57 13.9 93 93 Calm 30.04 1017 10 16 0.00 0.00
5:53 am 05:53 Clear 58 14.4 56 13.3 93 93 Calm 30.06 1018 10 16 0.00 0.00
6:53 am 06:53 Sunny 61 16.1 58 14.4 90 90 Calm 30.07 1018 10 16 0.00 0.00
7:53 am 07:53 Sunny 65 18.3 60 15.6 84 84 E 6 9 30.09 1019 10 16 0.00 0.00
8:53 am 08:53 Sunny 68 20 62 16.7 81 81 E 7 11 30.10 1019 10 16 0.00 0.00
9:53 am 09:53 Sunny 74 23.3 61 16.1 64 64 VRB 5 7 30.09 1019 10 16 0.00 0.00
10:53 am 10:53 Sunny 80 26.7 62 16.7 54 54 Calm 30.08 1019 10 16 0.00 0.00
11:53 am 11:53 Sunny 85 29.4 64 17.8 50 50 E 7 11 30.06 1018 10 16 0.00 0.00
12:53 pm 12:53 Sunny 87 30.6 63 17.2 45 45 E 8 13 30.04 1017 10 16 0.00 0.00
1:53 pm 13:53 Sunny 90 32.2 62 16.7 39 39 E 8 13 30.02 1017 10 16 0.00 0.00
2:53 pm 14:53 Sunny 92 33.3 54 12.2 28 28 ENE 10 17 30.00 1016 10 16 0.00 0.00
3:53 pm 15:53 Sunny 93 33.9 51 10.6 24 24 E 6 9 29.99 1016 10 16 0.00 0.00
4:53 pm 16:53 Sunny 93 33.9 52 11.1 25 25 E 7 11 29.98 1015 10 16 0.00 0.00
5:53 pm 17:53 Sunny 90 32.2 56 13.3 32 32 E 7 11 29.98 1015 10 16 0.00 0.00
6:53 pm 18:53 Sunny 86 30 63 17.2 46 46 E 7 11 29.98 1015 10 16 0.00 0.00
7:53 pm 19:53 Sunny 78 25.6 62 16.7 58 58 E 7 11 29.99 1016 10 16 0.00 0.00
8:53 pm 20:53 Clear 72 22.2 63 17.2 73 73 E 6 9 30.02 1017 10 16 0.00 0.00
9:53 pm 21:53 Clear 69 20.6 62 16.7 78 78 E 7 11 30.03 1017 10 16 0.00 0.00
10:53 pm 22:53 Clear 67 19.4 61 16.1 81 81 E 7 11 30.03 1017 10 16 0.00 0.00
11:53 pm 23:53 Clear 68 20 58 14.4 70 70 E 7 11 30.02 1017 10 16 0.00 0.00

Powered by AerisWeather